TimeCDT,TemperatureF,Dew PointF,Humidity,Sea Level PressureIn,VisibilityMPH,Wind Direction,Wind SpeedMPH,Gust SpeedMPH,PrecipitationIn,Events,Conditions,WindDirDegrees,DateUTC
12:53 AM,68.0,53.1,59,30.05,10.0,NNE,9.2,-,N/A,,Clear,20,2013-07-01 05:53:00
1:53 AM,66.9,54.0,63,30.06,10.0,North,9.2,-,N/A,,Clear,10,2013-07-01 06:53:00
2:53 AM,66.0,55.0,68,30.06,10.0,North,5.8,-,N/A,,Clear,360,2013-07-01 07:53:00
3:53 AM,63.0,55.0,75,30.06,10.0,North,5.8,-,N/A,,Clear,350,2013-07-01 08:53:00
4:53 AM,62.1,55.0,78,30.08,10.0,NNW,5.8,-,N/A,,Clear,340,2013-07-01 09:53:00
5:53 AM,59.0,55.0,87,30.09,10.0,North,6.9,-,N/A,,Clear,350,2013-07-01 10:53:00
6:53 AM,59.0,55.0,87,30.11,10.0,NNW,4.6,-,N/A,,Clear,330,2013-07-01 11:53:00
7:53 AM,62.1,55.0,78,30.11,10.0,North,8.1,-,N/A,,Clear,350,2013-07-01 12:53:00
8:53 AM,66.0,55.9,70,30.13,10.0,NNW,8.1,-,N/A,,Clear,340,2013-07-01 13:53:00
9:53 AM,71.1,55.9,59,30.14,10.0,North,8.1,-,N/A,,Clear,10,2013-07-01 14:53:00
10:53 AM,75.9,54.0,46,30.13,10.0,North,13.8,18.4,N/A,,Clear,360,2013-07-01 15:53:00
11:53 AM,79.0,48.0,34,30.13,9.0,NNE,12.7,23.0,N/A,,Partly Cloudy,30,2013-07-01 16:53:00
12:53 PM,80.1,46.9,31,30.12,8.0,NNE,16.1,23.0,N/A,,Partly Cloudy,20,2013-07-01 17:53:00
1:53 PM,82.0,48.0,30,30.10,8.0,NE,13.8,-,N/A,,Scattered Clouds,50,2013-07-01 18:53:00
2:53 PM,82.0,50.0,33,30.09,10.0,NE,13.8,18.4,N/A,,Mostly Cloudy,50,2013-07-01 19:53:00
3:53 PM,84.0,48.9,29,30.07,10.0,NNE,9.2,18.4,N/A,,Scattered Clouds,30,2013-07-01 20:53:00
4:53 PM,84.0,51.1,32,30.06,10.0,NNE,13.8,-,N/A,,Scattered Clouds,30,2013-07-01 21:53:00
5:53 PM,84.0,48.9,29,30.06,10.0,NNE,10.4,-,N/A,,Scattered Clouds,20,2013-07-01 22:53:00
6:53 PM,82.0,50.0,33,30.06,10.0,NNE,12.7,-,N/A,,Partly Cloudy,30,2013-07-01 23:53:00
7:53 PM,80.1,46.9,31,30.07,10.0,NE,15.0,-,N/A,,Partly Cloudy,40,2013-07-02 00:53:00
8:53 PM,77.0,48.0,36,30.08,10.0,NE,11.5,-,N/A,,Partly Cloudy,50,2013-07-02 01:53:00
9:53 PM,73.0,48.9,42,30.09,10.0,NE,9.2,-,N/A,,Partly Cloudy,40,2013-07-02 02:53:00
10:53 PM,71.1,50.0,47,30.10,10.0,NE,8.1,-,N/A,,Partly Cloudy,40,2013-07-02 03:53:00
11:53 PM,70.0,50.0,49,30.10,10.0,NNE,5.8,-,N/A,,Partly Cloudy,20,2013-07-02 04:53:00